Auburn, IN

12:33 AM EDT on October 15, 2019 (GMT -0400)
Auburn

Weather History for KGWB - May, 2019

Change the Weather History Date:

Friday, May 24, 2019

  Actual Average (KFWA) Record (KFWA)
Temperature  
Mean Temperature 61 °F -  
Max Temperature 71 °F 74 °F 91 °F (2007)
Min Temperature 51 °F 52 °F 36 °F (1963)
Degree Days  
Heating Degree Days 4    
Growing Degree Days 11 (Base 50)    
Moisture  
Dew Point 55 °F    
Average Humidity 80    
Maximum Humidity 100    
Minimum Humidity 57    
Precipitation  
Precipitation 0.00 in - - ()
Sea Level Pressure  
Sea Level Pressure 30.11 in    
Wind  
Wind Speed 2 mph (ESE)    
Max Wind Speed 10 mph    
Max Gust Speed -    
Visibility 10 miles    
Events Rain    
Averages and records for this station are not official NWS values.
T = Trace of Precipitation, MM = Missing Value Source: NWS Daily Summary

Daily Weather History Graph

Daily Weather History Graph

Search for Another Location

Airport or City:

Astronomy

May. 24, 2019 Rise Set
Actual Time 6:14 AM EDT 9:00 PM EDT
Civil Twilight 5:41 AM EDT 9:32 PM EDT
Nautical Twilight 5:01 AM EDT 10:13 PM EDT
Astronomical Twilight 4:14 AM EDT 11:00 PM EDT
Moon 1:24 AM EDT (5/24) 11:14 AM EDT (5/24)
Length of Visible Light 15h 51m
Length of Day
14h 46m
Waning Gibbous, 69% of the Moon is Illuminated
May 24
Waning Gibbous
May 26
Last Quarter
Jun 3
New
Jun 10
First Quarter
Jun 17
Full

Hourly Weather History & Observations

Time (EDT) Temp. Dew Point Humidity Pressure Visibility Wind Dir Wind Speed Gust Speed Precip Events Conditions
12:15 AM 57.2 °F 53.6 °F 88% 30.10 in 10.0 mi Calm Calm - N/A   Clear
12:35 AM 55.4 °F 51.8 °F 88% 30.10 in 10.0 mi Calm Calm - N/A   Clear
12:55 AM 55.4 °F 51.8 °F 88% 30.10 in 10.0 mi Calm Calm - N/A   Clear
1:18 AM 55.4 °F 53.6 °F 94% 30.10 in 10.0 mi Calm Calm - N/A   Clear
1:57 AM 55.4 °F 53.6 °F 94% 30.09 in 10.0 mi Calm Calm - N/A   Clear
2:18 AM 53.6 °F 51.8 °F 94% 30.09 in 10.0 mi Calm Calm - N/A   Clear
2:38 AM 53.6 °F 51.8 °F 94% 30.10 in 10.0 mi Calm Calm - N/A   Clear
2:55 AM 53.6 °F 51.8 °F 94% 30.10 in 10.0 mi Calm Calm - N/A   Clear
3:15 AM 53.6 °F 51.8 °F 94% 30.10 in 10.0 mi Calm Calm - N/A   Clear
3:35 AM 51.8 °F 51.8 °F 100% 30.09 in 10.0 mi Calm Calm - N/A   Clear
3:55 AM 51.8 °F 51.8 °F 100% 30.10 in 10.0 mi Calm Calm - N/A   Clear
4:15 AM 51.8 °F 51.8 °F 100% 30.11 in 10.0 mi Calm Calm - N/A   Clear
4:35 AM 53.6 °F 51.8 °F 94% 30.12 in 10.0 mi Calm Calm - N/A   Clear
4:55 AM 51.8 °F 51.8 °F 100% 30.12 in 10.0 mi Calm Calm - N/A   Clear
5:15 AM 51.8 °F 51.8 °F 100% 30.12 in 10.0 mi Calm Calm - N/A   Clear
5:35 AM 51.8 °F 51.8 °F 100% 30.13 in 10.0 mi Calm Calm - N/A   Clear
5:55 AM 51.8 °F 51.8 °F 100% 30.13 in 10.0 mi Calm Calm - N/A   Clear
6:15 AM 51.8 °F 51.8 °F 100% 30.13 in 10.0 mi Calm Calm - N/A   Clear
6:35 AM 51.8 °F 51.8 °F 100% 30.13 in 10.0 mi Calm Calm - N/A   Clear
6:55 AM 51.8 °F 51.8 °F 100% 30.13 in 10.0 mi Calm Calm - N/A   Clear
7:15 AM 53.6 °F 53.6 °F 100% 30.13 in 10.0 mi Calm Calm - N/A   Clear
7:35 AM 53.6 °F 53.6 °F 100% 30.13 in 10.0 mi Calm Calm - N/A   Clear
7:55 AM 55.4 °F 53.6 °F 94% 30.13 in 10.0 mi East 4.6 mph - N/A   Clear
8:15 AM 57.2 °F 53.6 °F 88% 30.13 in 10.0 mi ENE 5.8 mph - N/A   Clear
8:35 AM 57.2 °F 53.6 °F 88% 30.15 in 10.0 mi ENE 5.8 mph - N/A   Scattered Clouds
9:15 AM 59.0 °F 53.6 °F 82% 30.22 in 10.0 mi North 4.6 mph - N/A   Mostly Cloudy
9:35 AM 59.0 °F 53.6 °F 82% 30.24 in 10.0 mi North 5.8 mph - N/A Rain Light Rain
9:55 AM 59.0 °F 53.6 °F 82% 30.25 in 10.0 mi NNW 5.8 mph - N/A   Clear
10:15 AM 57.2 °F 53.6 °F 88% 30.20 in 10.0 mi NNE 10.4 mph - N/A Rain Light Rain
10:35 AM 59.0 °F 53.6 °F 82% 30.17 in 10.0 mi East 6.9 mph - N/A   Clear
10:55 AM 60.8 °F 53.6 °F 77% 30.18 in 10.0 mi East 4.6 mph - N/A   Scattered Clouds
11:20 AM 60.8 °F 53.6 °F 77% 30.17 in 10.0 mi East 5.8 mph - N/A   Mostly Cloudy
11:35 AM 62.6 °F 53.6 °F 72% 30.17 in 10.0 mi ESE 5.8 mph - N/A   Mostly Cloudy
11:55 AM 64.4 °F 53.6 °F 68% 30.16 in 10.0 mi SE 6.9 mph - N/A   Mostly Cloudy
12:15 PM 64.4 °F 53.6 °F 68% 30.16 in 10.0 mi SE 5.8 mph - N/A   Mostly Cloudy
12:35 PM 64.4 °F 53.6 °F 68% 30.15 in 10.0 mi SSE 4.6 mph - N/A   Mostly Cloudy
12:55 PM 68.0 °F 55.4 °F 64% 30.15 in 10.0 mi ESE 3.5 mph - N/A   Scattered Clouds
1:15 PM 68.0 °F 53.6 °F 60% 30.14 in 10.0 mi SSE 5.8 mph - N/A   Clear
1:35 PM 69.8 °F 55.4 °F 60% 30.14 in 10.0 mi South 4.6 mph - N/A   Scattered Clouds
1:55 PM 69.8 °F 55.4 °F 60% 30.13 in 10.0 mi SE 5.8 mph - N/A   Scattered Clouds
2:15 PM 69.8 °F 55.4 °F 60% 30.15 in 10.0 mi SSE 3.5 mph - N/A   Overcast
2:35 PM 68.0 °F 53.6 °F 60% 30.15 in 10.0 mi Calm Calm - N/A   Overcast
2:55 PM 68.0 °F 55.4 °F 64% 30.15 in 10.0 mi Calm Calm - N/A   Overcast
3:15 PM 68.0 °F 55.4 °F 64% 30.15 in 10.0 mi Calm Calm - N/A   Overcast
3:30 PM 69.8 °F 55.4 °F 60% 30.15 in 10.0 mi Calm Calm - N/A   Overcast
3:55 PM 69.8 °F 55.4 °F 60% 30.15 in 10.0 mi SE 3.5 mph - N/A   Overcast
4:15 PM 71.6 °F 55.4 °F 57% 30.13 in 10.0 mi ESE 3.5 mph - N/A   Mostly Cloudy
4:35 PM 71.6 °F 57.2 °F 60% 30.12 in 10.0 mi ESE 5.8 mph - N/A   Scattered Clouds
4:55 PM 71.6 °F 57.2 °F 60% 30.11 in 10.0 mi ESE 3.5 mph - N/A   Scattered Clouds
5:15 PM 71.6 °F 59.0 °F 64% 30.10 in 10.0 mi ESE 5.8 mph - N/A   Scattered Clouds
5:35 PM 71.6 °F 57.2 °F 60% 30.08 in 10.0 mi Calm Calm - N/A   Scattered Clouds
5:55 PM 71.6 °F 59.0 °F 64% 30.05 in 10.0 mi ESE 6.9 mph - N/A   Clear
6:15 PM 71.6 °F 59.0 °F 64% 30.05 in 10.0 mi SE 5.8 mph - N/A   Clear
6:35 PM 71.6 °F 59.0 °F 64% 30.04 in 10.0 mi ESE 5.8 mph - N/A   Clear
6:55 PM 71.6 °F 60.8 °F 69% 30.03 in 10.0 mi ESE 5.8 mph - N/A   Clear
7:15 PM 71.6 °F 60.8 °F 69% 30.04 in 10.0 mi ESE 4.6 mph - N/A   Clear
7:35 PM 69.8 °F 62.6 °F 78% 30.05 in 10.0 mi East 3.5 mph - N/A   Clear
7:55 PM 69.8 °F 62.6 °F 78% 30.05 in 10.0 mi East 4.6 mph - N/A   Clear
8:15 PM 68.0 °F 62.6 °F 83% 30.05 in 10.0 mi East 3.5 mph - N/A   Clear
8:35 PM 68.0 °F 60.8 °F 78% 30.03 in 10.0 mi ESE 4.6 mph - N/A   Clear
8:55 PM 68.0 °F 60.8 °F 78% 30.04 in 10.0 mi East 4.6 mph - N/A   Clear
9:15 PM 68.0 °F 60.8 °F 78% 30.04 in 10.0 mi East 5.8 mph - N/A   Scattered Clouds
9:35 PM 68.0 °F 60.8 °F 78% 30.04 in 10.0 mi ENE 8.1 mph - N/A   Mostly Cloudy
9:55 PM 64.4 °F 59.0 °F 83% 30.04 in 10.0 mi East 9.2 mph - N/A   Scattered Clouds
10:15 PM 64.4 °F 59.0 °F 83% 30.04 in 10.0 mi East 8.1 mph - N/A   Clear
10:35 PM 64.4 °F 59.0 °F 83% 30.03 in 10.0 mi East 5.8 mph - N/A   Scattered Clouds
10:55 PM 64.4 °F 59.0 °F 83% 30.03 in 10.0 mi East 5.8 mph - N/A   Clear
11:15 PM 62.6 °F 59.0 °F 88% 30.04 in 10.0 mi East 4.6 mph - N/A   Scattered Clouds
11:35 PM 62.6 °F 59.0 °F 88% 30.04 in 10.0 mi East 4.6 mph - N/A   Scattered Clouds
11:55 PM 62.6 °F 59.0 °F 88% 30.04 in 10.0 mi East 5.8 mph - N/A   Clear